Weather Roundup
Issued by NWS

Home | Current Version | Previous Version | Graphics & Text | Print | Product List | Glossary Off
Versions: 1 2 3 4 5 6 7 8 9 10 11 12 13 14 15 16 17 18 19 20 21 22 23 24 25 26 27 28 29 30 31 32 33 34 35 36 37 38 39 40 41 42 43 44 45 46 47 48 49 50

000
NZUS93 KARX 241610
HRRWXR

CURRENT HOURLY OBSERVATIONS ACROSS
MUCH OF THE UPPER MISSISSIPPI VALLEY
NATIONAL WEATHER SERVICE LA CROSSE WI
1100 AM CDT FRI OCT 24 2014


...SOUTHEAST MINNESOTA...


CITY           SKY/WX    TMP DP  RH WIND       PRES   REMARKS
ROCHESTER      PTSUNNY   58  53  84 S17       29.92F
ROCHESTER/MAYO PTSUNNY   57  53  84 SE10      29.91F
WINONA         MOSUNNY   55  52  88 SE9       29.95F
AUSTIN         CLOUDY    54  52  94 S10       29.92S FOG
ALBERT LEA     CLOUDY    54  54 100 S7        29.91S FOG
DODGE CENTER   CLOUDY    57  54  88 S13G18    29.91R
PRESTON        MOSUNNY   56  55  95 S13       29.94F
OWATONNA       PTSUNNY   57  52  82 S12G18    29.89F
FARIBAULT      PTSUNNY   57  54  88 S9        29.88F
$$

...ELSEWHERE IN MINNESOTA...


CITY           SKY/WX    TMP DP  RH WIND       PRES   REMARKS
MINNEAPOLIS    PTSUNNY   57  50  77 SE8       29.88F
INTNL FALLS    MOSUNNY   60  42  51 SW12G20   29.74S
DULUTH         MOSUNNY   57  46  66 SW13      29.84F
RED WING       PTSUNNY   57  52  82 SE10      29.89F
REDWOOD FALLS  CLOUDY    57  50  77 W7        29.86R
MANKATO        MOSUNNY   61  50  67 S12       29.87F
WORTHINGTON    CLOUDY    57  52  82 W12       29.90S
FAIRMONT       CLOUDY    59  27  29 SW9       29.88F
$$

...SOUTHWEST WISCONSIN...


CITY           SKY/WX    TMP DP  RH WIND       PRES   REMARKS
LA CROSSE      CLOUDY    55  52  89 S9        29.98F
PRAIRIE DU CHI CLOUDY    55  53  91 S5        30.01S FOG
BOSCOBEL       CLOUDY    56  53  90 VRB6      30.02F
LONE ROCK      CLOUDY    54  50  86 SE5       30.03F FOG
PLATTEVILLE    CLOUDY    54  53  97 S9        30.04S VSB 1/4
FORT MC COY    CLOUDY    53  50  89 S6        30.00F
CAMP DOUGLAS   CLOUDY    50  50 100 S5        30.01R
VIROQUA        CLOUDY    52  52 100 S8        30.00S
WIS DELLS      CLOUDY    49  48  96 SE6       30.02F
$$

...ELSEWHERE IN WISCONSIN...


CITY           SKY/WX    TMP DP  RH WIND       PRES   REMARKS
MILWAUKEE      CLOUDY    51  48  89 W7        30.05F
MADISON        CLOUDY    50  49  96 SW6       30.04S FOG
GREEN BAY      CLOUDY    49  47  93 W8        30.02F FOG
EAU CLAIRE     CLOUDY    52  48  86 SE12      29.94F
BLACK RVR FLS  CLOUDY    51  51 100 SE3       29.99S FOG
MEDFORD        FOG       46  46 100 S6        29.97F VSB 3/4
WAUSAU         FOG       45  45 100 S6        29.98S VSB 3/4
WIS RAPIDS     FOG       47  47 100 SW5       30.02S VSB 1
MARSHFIELD     FOG       47  46  97 S5        29.99F VSB 3/4
RICE LAKE      CLOUDY    51  48  87 SE12      29.93F
$$

...NORTHEAST IOWA...


CITY           SKY/WX    TMP DP  RH WIND       PRES   REMARKS
DECORAH        PTSUNNY   57  55  94 S10       29.96F
MASON CITY     FOG       54  54 100 S9        29.94S VSB 1/4
CHARLES CITY   FOG       52  52 100 S12G17    29.95F VSB<1/4
OELWEIN        FOG       54  54 100 S13       30.00R VSB<1/4
$$

...ELSEWHERE IN IOWA...


CITY           SKY/WX    TMP DP  RH WIND       PRES   REMARKS
DES MOINES     CLOUDY    62  60  93 S14       29.97S FOG
IOWA CITY      FOG       53  53 100 S7        30.06S VSB 1/4
FORT DODGE     CLOUDY    61  57  88 S10       29.92F
$$

...NORTHERN ILLINOIS...


CITY           SKY/WX    TMP DP  RH WIND       PRES   REMARKS
CHICAGO-OHARE  PTSUNNY   58  47  66 VRB6      30.05F
CHICAGO-MIDWAY PTSUNNY   60  49  66 NW6       30.06S
MOLINE         CLOUDY    55  52  89 S9        30.07R FOG
ROCKFORD       FOG       51  50  96 S7        30.08F VSB 3/4
PEORIA         PTSUNNY   56  52  86 S7        30.09S FOG
$$

NOTE: "FAIR" INDICATES FEW OR NO CLOUDS BELOW 12,000 FEET WITH NO
SIGNIFICANT WEATHER AND/OR OBSTRUCTIONS TO VISIBILITY. WIND
SPEEDS ARE IN MILES-PER-HOUR.



USA.gov is the U.S. government's official web portal to all federal, state and local government web resources and services.